Regional Weather Roundup
Issued by NWS

Home | Current Version | Previous Version | Graphics & Text | Print | Product List | Glossary On
Versions: 1 2 3 4 5 6 7 8 9 10 11 12 13 14 15 16 17 18 19 20 21 22 23 24 25 26 27 28 29 30 31 32 33 34 35 36 37 38 39 40 41 42 43 44 45 46 47 48 49 50
762
ASUS43 KBIS 251810
RWRND

NORTH DAKOTA REGIONAL WEATHER ROUNDUP
NATIONAL WEATHER SERVICE BISMARCK ND
100 PM CDT SUN SEP 25 2016

NOTE: "FAIR" INDICATES FEW OR NO CLOUDS BELOW 12,000 FEET WITH NO
SIGNIFICANT WEATHER AND/OR OBSTRUCTIONS TO VISIBILITY.


NDZ001>003-009>011-017-251900-
NORTHWEST NORTH DAKOTA

CITY           SKY/WX    TMP DP  RH WIND       PRES   REMARKS
WILLISTON      SUNNY     61  35  37 NW25G39   30.20R
6HR MIN TEMP:  45; 6HR MAX TEMP:  61;

MINOT          SUNNY     60  39  45 W26G40    30.04R
MINOT AFB      SUNNY     60  40  47 NW33G45   30.02R
$$

NDZ018>021-031>035-040>046-251900-
SOUTHWEST NORTH DAKOTA

CITY           SKY/WX    TMP DP  RH WIND       PRES   REMARKS
BISMARCK       MOSUNNY   61  36  39 NW29G40   30.10R
6HR MIN TEMP:  51; 6HR MAX TEMP:  62; 6HR PCP: TRACE;

DICKINSON      MOSUNNY   57  33  40 NW30G43   30.20S
GARRISON         N/A     60  37  42 NW35G49   30.09R
6HR MIN TEMP:  47; 6HR MAX TEMP:  60;

HETTINGER ARPT SUNNY     58  34  40 NW24G38   30.25S
$$

NDZ004>008-012>016-024-026-027-054-251900-
NORTHEAST NORTH DAKOTA

CITY           SKY/WX    TMP DP  RH WIND       PRES   REMARKS
GRAND FORKS    CLOUDY    57  51  80 NW22G36   29.78R
GRND FRKS AFB  DRIZZLE   55  52  88 NW22G35   29.79R
DEVILS LAKE    CLOUDY    54  47  77 NW31G40   29.89R
$$

NDZ022-023-025-028>030-036>039-047>053-251900-
SOUTHEAST NORTH DAKOTA

CITY           SKY/WX    TMP DP  RH WIND       PRES   REMARKS
FARGO          CLOUDY    62  50  64 W24G31    29.83R
6HR MIN TEMP:  54; 6HR MAX TEMP:  62; 6HR PCP: TRACE;

JAMESTOWN      PTSUNNY   58  46  64 NW30G44   29.94R
$$





USA.gov is the U.S. government's official web portal to all federal, state and local government web resources and services.